Total_Precipitation_Accumulation
2.93 3.37 3.15 2.77 2.76 2.85 3.08 3.45 3.72 3.26 2.85 2.74 2.75 2.79 2.91 2.97 3.13 2.83 2.56 2.48 2.20 1.98 1.90 1.89 1.88 1.81 1.75 1.74 1.82 1.99 2.18 2.34 2.59 2.94 3.33 3.74 4.19 4.70
2.95 3.07 3.01 2.75 2.80 2.88 3.08 3.35 3.67 3.61 3.07 2.72 2.92 2.97 2.87 2.64 2.93 2.80 2.52 2.43 2.13 1.92 1.75 1.71 1.76 1.81 1.84 1.81 1.77 1.80 1.85 1.92 1.98 2.13 2.33 2.49 2.74 3.19
2.88 2.85 2.81 3.03 3.09 2.93 3.10 3.26 3.52 3.78 3.48 2.94 3.02 3.04 2.99 2.77 2.71 2.60 2.46 2.39 2.18 2.13 1.89 1.78 1.71 1.68 1.69 1.72 1.79 1.83 1.81 1.78 1.76 1.80 1.92 2.07 2.16 2.29
2.91 3.13 3.05 3.24 3.27 3.21 3.40 3.41 3.51 3.80 3.70 3.32 3.17 3.20 3.09 2.95 2.86 2.60 2.21 2.09 2.07 2.26 2.08 1.92 1.80 1.75 1.69 1.67 1.65 1.60 1.58 1.61 1.61 1.58 1.61 1.67 1.78 1.97
2.69 2.99 3.29 3.77 3.63 3.46 3.35 3.26 3.29 3.37 3.63 3.34 3.06 3.27 3.09 2.97 2.94 2.56 2.26 2.20 1.85 1.92 1.95 1.81 1.67 1.55 1.48 1.48 1.51 1.50 1.42 1.40 1.43 1.48 1.53 1.58 1.62 1.70
2.59 2.71 2.89 3.20 3.38 3.51 3.29 3.19 3.28 3.37 3.50 3.39 3.27 3.48 3.53 3.36 3.16 2.76 2.56 2.41 2.11 1.77 1.81 1.71 1.60 1.52 1.45 1.39 1.37 1.38 1.42 1.42 1.46 1.50 1.55 1.64 1.71 1.76
2.72 2.63 2.46 2.59 2.79 2.99 2.83 3.14 3.34 3.30 3.35 3.39 3.48 3.84 3.82 3.63 3.10 2.83 2.72 2.58 2.29 1.93 1.89 1.65 1.56 1.44 1.40 1.44 1.39 1.36 1.35 1.37 1.39 1.42 1.49 1.56 1.63 1.72
2.91 2.83 2.61 2.42 2.39 2.54 2.61 2.82 3.07 3.09 3.15 3.31 3.38 3.55 3.59 3.55 3.35 3.07 2.81 2.64 2.33 2.04 2.07 1.90 1.71 1.61 1.48 1.39 1.50 1.49 1.46 1.43 1.39 1.37 1.35 1.37 1.43 1.50
3.10 3.21 2.74 2.29 2.53 2.47 2.55 2.55 2.43 2.54 2.75 2.96 3.11 3.12 3.45 3.59 3.66 3.22 3.02 2.81 2.42 2.25 2.33 2.12 1.99 1.79 1.56 1.49 1.62 1.48 1.44 1.43 1.38 1.33 1.28 1.24 1.25 1.31
2.69 2.75 2.74 2.54 2.47 2.53 2.49 2.31 2.07 2.05 2.21 2.26 2.34 2.61 2.98 3.50 3.84 3.58 3.46 3.24 2.84 2.49 2.34 2.18 2.00 1.86 1.64 1.57 1.63 1.49 1.40 1.37 1.35 1.30 1.25 1.23 1.22 1.24
2.30 2.30 2.32 2.16 2.26 2.33 2.29 2.17 2.04 1.92 1.95 2.02 1.97 2.09 2.42 2.82 3.35 3.59 3.34 3.01 2.65 2.32 2.22 2.11 1.88 1.97 1.92 1.77 1.66 1.70 1.52 1.41 1.35 1.33 1.31 1.30 1.30 1.36
2.43 2.38 2.33 2.15 2.16 2.10 2.01 2.02 1.84 1.73 1.86 1.83 1.75 1.76 1.89 2.24 2.77 2.95 3.06 2.91 2.57 2.28 1.98 2.04 1.96 2.10 2.12 1.81 1.64 1.63 1.57 1.55 1.49 1.39 1.37 1.40 1.46 1.32
2.49 2.52 2.45 2.35 2.04 1.93 1.83 1.74 1.72 1.90 1.99 1.98 1.91 1.90 2.06 2.24 2.41 2.69 2.94 3.00 2.77 2.33 2.07 2.18 2.05 2.13 2.21 1.99 1.79 1.70 1.61 1.57 1.53 1.50 1.47 1.45 1.46 1.35
2.40 2.51 2.54 2.45 2.16 2.03 1.88 1.73 1.81 1.83 1.82 1.94 1.92 1.87 1.91 2.03 2.23 2.53 2.82 2.90 2.79 2.54 2.46 2.50 2.34 2.29 2.33 2.17 1.92 1.82 1.79 1.70 1.64 1.55 1.50 1.66 1.57 1.51
2.15 2.53 2.61 2.46 2.22 1.96 1.87 1.88 1.82 1.70 1.73 1.75 1.66 1.61 1.69 1.85 2.06 2.36 2.70 2.92 2.85 2.62 2.51 2.47 2.43 2.51 2.57 2.34 2.06 1.90 1.92 1.86 1.72 1.67 1.59 1.53 1.45 1.45
1.98 2.19 2.27 2.20 1.99 1.83 1.75 1.68 1.61 1.63 1.63 1.60 1.60 1.67 1.79 1.85 1.91 2.07 2.47 2.82 2.93 2.70 2.51 2.45 2.46 2.60 2.58 2.42 2.32 2.07 1.93 1.90 1.79 1.75 1.74 1.64 1.57 1.48
2.11 2.05 2.08 2.15 2.11 2.02 2.00 1.94 1.90 1.84 1.72 1.65 1.73 1.77 1.89 2.02 2.08 2.21 2.47 2.69 2.64 2.39 2.32 2.43 2.56 2.65 2.60 2.58 2.45 2.11 1.97 1.89 1.91 2.00 2.02 1.87 1.68 1.59
1.83 1.81 1.95 2.12 2.23 2.23 2.26 2.23 2.16 2.07 1.97 1.97 2.02 2.00 2.00 2.08 2.16 2.20 2.38 2.57 2.57 2.41 2.30 2.29 2.55 2.79 2.78 2.55 2.28 2.12 2.00 1.89 1.93 2.10 2.15 2.05 1.82 1.65
1.58 1.68 1.84 1.97 2.14 2.29 2.34 2.29 2.19 2.21 2.28 2.27 2.25 2.22 2.21 2.26 2.34 2.32 2.32 2.46 2.54 2.50 2.48 2.51 2.60 2.72 2.66 2.29 1.99 1.93 2.01 2.02 2.10 2.16 2.13 1.99 1.79 1.69
1.63 1.82 1.99 2.11 2.23 2.42 2.48 2.43 2.40 2.36 2.39 2.36 2.38 2.37 2.36 2.36 2.38 2.36 2.32 2.30 2.42 2.53 2.55 2.55 2.53 2.47 2.41 2.30 2.16 2.06 2.02 2.08 2.13 2.09 2.06 2.06 1.94 1.91
1.91 1.98 2.05 2.14 2.28 2.44 2.58 2.64 2.65 2.59 2.55 2.51 2.45 2.47 2.51 2.52 2.41 2.35 2.42 2.47 2.43 2.47 2.40 2.21 2.25 2.63 2.78 2.80 2.56 2.18 2.06 2.18 2.21 2.20 2.23 2.35 2.19 2.04
1.93 2.01 2.05 2.07 2.23 2.36 2.44 2.50 2.53 2.50 2.50 2.55 2.50 2.47 2.50 2.53 2.46 2.47 2.57 2.57 2.45 2.37 2.29 2.25 2.44 2.74 2.88 2.87 2.53 2.28 2.23 2.27 2.34 2.36 2.31 2.26 2.15 1.98
1.86 1.87 1.92 1.97 2.08 2.22 2.28 2.35 2.41 2.41 2.38 2.41 2.50 2.51 2.44 2.46 2.45 2.49 2.53 2.59 2.52 2.46 2.51 2.56 2.62 2.67 2.65 2.66 2.61 2.44 2.32 2.38 2.38 2.24 2.01 1.91 1.80 1.70